THOR ABLESTAR DEB, 327

Orbit data source: Space-Track

THOR ABLESTAR DEB, 327 is space debris in LEO originally from a launch on Thu, 29 Jun 1961 UTC launched from the Air Force Eastern Test Range (AFETR). Debris objects in space refer to the collection of defunct objects orbiting the Earth. Examples of debris include non-operational satellites, rocket bodies, and fragments generated from explosions, collisions, or faulty payload assembly.

Loading next visibility...
Identifier
327, 1961-015DD
Orbit
LEO
Country
Flag of USUS
Related business
Manufacturer
Unknown
Mission
Spacecraft
Bus & Motor
Unknown
Mass
Unknown
Launch date (UTC)
1961-06-29 (64 years ago)
Launch vehicle
Unknown
Launch site
Air Force Eastern Test Range (AFETR)
Object type
Payload
Rocket body
Debris
Shape & HBR
Unknown shape, 0.1 m
Radar Cross Section
Small (<0.1 m²)

Expand to show TLE details & history
Last TLE update: 1 day ago

TLE from 1 day ago
0 THOR ABLESTAR DEB
1 00327U 61015DD  25346.67260612  .00000386  00000-0  35118-3 0  9993
2 00327  66.5416 128.1526 0119136 254.8218 103.9658 13.90780815260808
Epoch: 2025-12-12T16:08Z
TLE epoch observation values (Epoch: 2025-12-12T16:08:33.168Z)
Latitude
-0.00002°
Longitude
164.40353°
Altitude
949.927 km
Speed
7.366 km/s
True Right ascension
08h 32m 36s
True Declination
0° 00' 00"
Sunlit
Object was in full shadow at epoch
Visualization orbit readout
Latitude
Unknown
Longitude
Unknown
Altitude
Unknown
Speed
Unknown
Apparent Right ascension
Unknown
Apparent Declination
Unknown
Sunlit
N/A
Visualization observer readout
Local Sidereal Time
14:55:03
Azimuth
Unknown
Elevation
Unknown
Doppler factor
Unknown
Orbital elements
Apogee altitude
1,011.317 km
Perigee altitude
837.32 km
Semi-major axis
7,302.456 km
Eccentricity
0.01191
Inclination
66.5416°
RAAN
128.1526°
Arg. of periapsis
254.8218°
True anomaly
105.28578°
Mean anomaly
103.9658°
Eccentric anomaly
104.62628°
Mean motion
3.47808 °/min
Orbital period
103.51 mins
BSTAR
0.00035118
Loading maneuver chart data...
Computing Atmospheric mass density...

Documentation

Showing up to 5 results
|